Flag for Romania Weather past 2 weeks in Bucharest, Romania

Now
66 °F

Clear.


Feels Like: 66 °F
Forecast: 56 / 81 °F
Wind: No wind

Location: Bucharest / Imh

Current Time: Aug 30, 2014 at 12:14:45 AM

Latest Report: Aug 29, 2014 at 10:00 PM


Visibility: 10 mi

Pressure: 30.15 "Hg

Humidity: 52%

Dew point: 48 °F

Location of BucharestLocation

Historic Weather in Bucharest — Graph

°F

Bucharest temperature yesterday

Maximum temperature yesterday: 79 °F (at 3:30 PM)
Minimum temperature yesterday: 57 °F (at 5:30 AM)
Average temperature yesterday: 68 °F

Past Weeks' High & Low Weather Summary

 TemperatureHumidityPressure
High93 °F (Aug 15, 5:30 PM)100% (Aug 18, 4:00 AM)30.18 "Hg (Aug 18, 4:00 AM)
Low57 °F (Aug 18, 4:00 AM)20% (Aug 19, 5:30 PM)29.74 "Hg (Aug 15, 7:00 PM)
Average73 °F60%29.95 "Hg
* Reported Aug 14 10:00 PM — Aug 29 10:00 PM, Bucharest, Weather by CustomWeather, © 2014

Note: Actual official high and low records may vary slightly from our data, if they occured in-between our weather recording intervals... More about our weather records

Advertising

Bucharest weather history for previous 24 hours

 ConditionsComfort  
Time TempWeatherWind HumidityBarometerVisibility
10:00 PM
Aug 29
66 °FClear.No wind52%30.15 "Hg10 mi
9:30 PM66 °FClear.No wind52%30.12 "Hg10 mi
9:00 PM68 °FClear.3 mph49%30.12 "Hg10 mi
8:30 PM72 °FSunny.3 mph41%30.12 "Hg10 mi
8:00 PM73 °FSunny.1 mph33%30.12 "Hg10 mi
7:30 PM75 °FSunny.No wind27%30.12 "Hg10 mi
7:00 PM77 °FSunny.1 mph24%30.12 "Hg10 mi
6:30 PM79 °FPassing clouds.3 mph23%30.12 "HgN/A
6:00 PM79 °FSunny.2 mph24%30.12 "Hg10 mi
5:30 PM79 °FSunny.3 mph26%30.12 "Hg10 mi
5:00 PM79 °FSunny.1 mph24%30.12 "Hg10 mi
4:30 PM79 °FSunny.2 mph23%30.12 "Hg10 mi
4:00 PM79 °FSunny.2 mph23%30.12 "Hg10 mi
3:30 PM79 °FPassing clouds.5 mph26%30.15 "HgN/A
3:00 PM77 °FSunny.1 mph28%30.15 "Hg10 mi
2:30 PM77 °FSunny.5 mph26%30.15 "Hg10 mi
2:00 PM77 °FSunny.2 mph26%30.15 "Hg10 mi
1:30 PM75 °FSunny.3 mph29%30.15 "Hg10 mi
1:00 PM75 °FSunny.3 mph27%30.18 "Hg10 mi
12:30 PM75 °FPassing clouds.6 mph29%30.18 "HgN/A
12:00 PM73 °FPassing clouds.8 mph29%30.18 "HgN/A
11:30 AM72 °FPassing clouds.6 mph36%30.18 "HgN/A
11:00 AM72 °FPassing clouds.7 mph36%30.18 "HgN/A
10:30 AM72 °FMild.6 mph41%30.18 "HgN/A
10:00 AM70 °FPassing clouds.6 mph43%30.18 "HgN/A
9:30 AM68 °FPassing clouds.3 mph53%30.18 "HgN/A
9:00 AM64 °FMild.3 mph60%30.18 "HgN/A
8:30 AM63 °FPassing clouds.3 mph64%30.18 "HgN/A
8:00 AM61 °FSunny.2 mph68%30.18 "Hg10 mi
7:30 AM57 °FClear.2 mph82%30.15 "Hg10 mi
7:00 AM57 °FClear.3 mph82%30.15 "Hg10 mi
6:30 AM57 °FClear.2 mph82%30.15 "Hg10 mi
6:00 AM57 °FClear.2 mph82%30.15 "Hg10 mi
5:30 AM57 °FClear.2 mph82%30.15 "Hg10 mi
5:00 AM59 °FClear.2 mph77%30.15 "Hg10 mi
4:30 AM59 °FClear.No wind77%30.15 "Hg10 mi
4:00 AM59 °FClear.1 mph77%30.15 "Hg10 mi
3:30 AM59 °FClear.No wind77%30.12 "Hg10 mi
3:00 AM59 °FClear.2 mph77%30.12 "Hg10 mi
2:30 AM61 °FClear.2 mph72%30.12 "Hg10 mi
2:00 AM61 °FClear.3 mph72%30.12 "Hg10 mi
1:30 AM61 °FClear.3 mph68%30.12 "Hg10 mi
1:00 AM61 °FClear.5 mph63%30.12 "Hg10 mi
12:30 AM61 °FClear.5 mph63%30.12 "Hg10 mi
12:00 AM64 °FPassing clouds.7 mph52%30.12 "HgN/A
Weather by CustomWeather, © 2014

See weather overviewHow to use our weather pages